Regional Weather Roundup
Issued by NWS

Home | Current Version | Previous Version | Graphics & Text | Print | Product List | Glossary On
Versions: 1 2 3 4 5 6 7 8 9 10 11 12 13 14 15 16 17 18 19 20 21 22 23 24 25 26 27 28 29 30 31 32 33 34 35 36 37 38 39 40 41 42 43 44 45 46 47 48 49 50
000
ASUS43 KDMX 301107
RWRIA

WEATHER ROUNDUP FOR IOWA
NATIONAL WEATHER SERVICE DES MOINES IA
600 AM CDT SAT MAY 30 2015

NOTE: "FAIR" INDICATES FEW OR NO CLOUDS BELOW 12,000 FEET WITH NO
SIGNIFICANT WEATHER AND/OR OBSTRUCTIONS TO VISIBILITY.

* - THESE STATIONS ARE NOT NWS STATIONS...THUS NOT UNDER NWS
QUALITY CONTROL.  THEY ALSO DO NOT REPORT WEATHER SUCH
AS PRECIPITATION OR FOG.

IAZ001>003-012>014-020>022-031>034-043>046-301200-
   NORTHWEST IOWA

CITY           SKY/WX    TMP DP  RH WIND       PRES   REMARKS
CARROLL *      CLOUDY    52  50  93 N15G21    30.09R
CHEROKEE *     CLOUDY    50  45  81 N14       30.15R
DENISON *      CLOUDY    52  52 100 VRB7G18   30.10R
LE MARS *      MOCLDY    48  45  87 N13       30.19R
ORANGE CITY *  CLEAR     45  41  87 N10G20    30.17R
SHELDON *      PTCLDY    46  45  93 N21G26    30.15S
SIOUX CITY     CLOUDY    51  43  74 N15       30.16R
SPENCER        CLOUDY    49  43  80 N17       30.14R
STORM LAKE *   CLOUDY    50  45  81 N20G25    30.13R
$$

IAZ055>058-069>071-079>083-090>094-301200-
   SOUTHWEST IOWA

CITY           SKY/WX    TMP DP  RH WIND       PRES   REMARKS
ATLANTIC *     CLOUDY    54  52  94 N14       30.09R
AUDUBON *      CLOUDY    52  48  87 N12       30.10R
CLARINDA *     CLOUDY    54  52  94 N13G20    30.09R
COUNCIL BLFS * LGT RAIN  50  50 100 NW14      30.11S
CRESTON *      CLOUDY    54  54 100 N16       30.05R
HARLAN  *      CLOUDY    52  52 100 N10G16    30.14R
LAMONI         CLOUDY    58  54  86 N14G21    30.02R
RED OAK *      CLOUDY    52  50  93 N14       30.09R
SHENANDOAH *   CLOUDY    52  50  93 N13G21    30.10R
$$

IAZ047>049-059>061-072>074-084-301200-
   CENTRAL IOWA

CITY           SKY/WX    TMP DP  RH WIND       PRES   REMARKS
AMES           LGT RAIN  55  53  93 N17       30.04R
ANKENY *       CLOUDY    57  55  94 NW10G16   30.04R
CHARITON *     CLOUDY    57  55  94 NW13      30.01R
DES MOINES     DRIZZLE   57  53  86 N12       30.03R FOG
GRINNELL*      CLOUDY    59  55  88 NW13      30.01R
KNOXVILLE *    CLOUDY    59  55  88 NW15      29.99R
MARSHALLTOWN   CLOUDY    56  54  93 N16       30.01R
PELLA *        CLOUDY    59  59 100 N10       30.01R FOG
PERRY *        CLOUDY    54  52  94 N14G20    30.07R FOG
$$

IAZ004>006-015-016-023>025-035-036-301200-
   NORTH CENTRAL IOWA

CITY           SKY/WX    TMP DP  RH WIND       PRES   REMARKS
ALGONA *       CLOUDY    50  48  93 N14G24    30.11R
CLARION *      CLOUDY    54  50  87 N15G24    30.07R
ESTHERVILLE    PTCLDY    47  43  86 N16       30.14R
FORT DODGE *   CLOUDY    52  46  82 N10G20    30.08R
MASON CITY     CLOUDY    52  48  86 N18G29    30.08R
FOREST CITY *  CLOUDY    50  48  93 N7G20     30.09R
IOWA FALLS *   DRIZZLE   54  52  94 N20G25    30.05R
$$

IAZ007>011-017>019-026>030-037>042-050>054-066-301200-
   NORTHEAST IOWA

CITY           SKY/WX    TMP DP  RH WIND       PRES   REMARKS
CEDAR RAPIDS   CLOUDY    64  64 100 NW8       29.94R
CHARLES CITY * CLOUDY    54  54 100 N22G29    30.03R FOG
CLINTON *      CLOUDY    64  63  94 SW7       29.97R
DECORAH *      CLOUDY    57  57 100 N14       30.00R FOG
DUBUQUE        CLOUDY    64  62  93 SW3       29.94R
MONTICELLO *   CLOUDY    66  66 100 W5        29.94R
OELWEIN *      CLOUDY    61  57  88 N15       29.98R
WATERLOO       CLOUDY    58  56  93 N13       29.99R
$$

IAZ064-065-067-068-078-301200-
   EAST CENTRAL IOWA

CITY           SKY/WX    TMP DP  RH WIND       PRES   REMARKS
DAVENPORT      CLOUDY    66  63  90 S9        29.95R
IOWA CITY      CLOUDY    66  63  90 W7        29.96R
MT. PLEASANT * CLOUDY    64  64 100 S6        29.96R
MUSCATINE *    CLOUDY    66  64  94 S5        29.95R
QUAD CITIES    LGT RAIN  66  62  87 SW6       29.95R
$$

IAZ062-063-075>077-085>089-095>099-301200-
   SOUTHEAST IOWA

CITY           SKY/WX    TMP DP  RH WIND       PRES   REMARKS
BURLINGTON     LGT RAIN  65  65 100 S6        29.96R
FAIRFIELD *    LGT RAIN  64  63  94 NW12      29.96R
FORT MADISON * LGT RAIN  64  64 100 S5        29.97R
KEOKUK *       LGT RAIN  64  64 100 S5        29.96R
OSKALOOSA *    CLOUDY    61  59  94 NW8       29.99R
CENTERVILLE *  CLOUDY    59  59 100 NW12G20   30.00R
OTTUMWA        CLOUDY    60  60 100 NW9       29.97R
WASHINGTON *   CLOUDY    66  64  94 W6        29.97R
$$

ABBREVIATIONS USED IN REMARKS
   TC - TEMPERATURES IN CELSIUS
  WCI - WIND CHILL INDEX
   HX - HEAT INDEX
  VSB - VISIBILITY
$$




USA.gov is the U.S. government's official web portal to all federal, state and local government web resources and services.